Hourly Data Report for September 28, 2018

SHEARWATER RCS
NOVA SCOTIA
Current Station Operator: ECCC - MSC

44°37'47.000" N
63°30'48.000" W
24.00 m
8205092
71264
AAW

Download Data

Hourly Data (September 2018)
Hourly Data Report for September 28, 2018
TIME Temp Definition
°C
Dew Point Definition
°C
Rel Hum Definition
%
Wind Dir Definition
10's deg

Wind Spd Definition
km/h
Visibility Definition
km
Stn Press Definition
kPa
Hmdx Definition


Wind Chill Definition


Weather Definition


00:00 12.4 11.0 91 5 17   101.82     LegendNANA
01:00 12.4 11.3 93 5 13   101.86     LegendNANA
02:00 12.4 11.4 94 5 15   101.84     LegendNANA
03:00 12.2 11.3 94 5 13   101.78     LegendNANA
04:00 12.3 11.4 95 6 14   101.75     LegendNANA
05:00 12.4 11.5 95 6 15   101.72     LegendNANA
06:00 12.1 11.3 95 7 12   101.70     LegendNANA
07:00 12.9 12.2 96 6 15   101.60     LegendNANA
08:00 14.7 14.0 96 7 24   101.58     LegendNANA
09:00 15.2 14.5 95 7 21   101.55     LegendNANA
10:00 15.7 15.0 96 7 22   101.48     LegendNANA
11:00 16.6 15.9 96 6 19   101.41     LegendNANA
12:00 17.3 16.5 95 6 17   101.28     LegendNANA
13:00 18.2 17.0 93 4 13   101.16     LegendNANA
14:00 18.9 17.7 93 3 11   101.06     LegendNANA
15:00 19.2 18.1 93 34 11   101.05     LegendNANA
16:00 19.7 18.1 91 33 10   101.03     LegendNANA
17:00 16.3 15.2 93 32 11   101.09     LegendNANA
18:00 15.8 14.7 93 31 10   101.15     LegendNANA
19:00 15.1 14.0 93 30 7   101.19     LegendNANA
20:00 14.8 13.8 94 32 6   101.21     LegendNANA
21:00 14.5 13.6 94 32 4   101.21     LegendNANA
22:00 14.4 13.5 94 30 6   101.26     LegendNANA
23:00 14.2 13.3 94 33 9   101.24     LegendNANA

Notes on Data Quality.

Legend

  • E = Estimated
  • M = Missing
  • NA = Not Available*
  • [empty] = Indicates an unobserved value
Date modified: